GSAT0207 (GALILEO 15) (41859 NORAD) Tracking and Keplerian Element Data

This shows tracking and keplerian element data for the satellite.

Feedback or suggestion? Click here.




ElementValue
Catalog41859
NameGSAT0207 (GALILEO 15)
Epoch Orbit1704
Epoch Day227.07163398
Epoch Year2019
RAAN170.3828
Inclination54.6113
Eccentricity0.0005465
Argument of Perigee296.3585
Mean Anonmoly63.539
Mean Motion1.70473035
Decay Rate-1.3E-07
L11 41859U 16069A 19227.07163398 -.00000013 00000-0 00000+0 0 9991
L22 41859 54.6113 170.3828 0005465 296.3585 63.5390 1.70473035 17044

Live tracking and technical data element details for GSAT0207 (GALILEO 15) (NORAD 41859). GSAT0207 (GALILEO 15) can be tracked NOW for your location showing map with azimuth and elevation plus other details from your city location.

Track the satellite on the map from your city or location and see movement details for azimuth, elevation, latitude, longitude, range, height, and movement on the map or in text.







IsCatalogInMostPopularTable: catalog: 41859, numindb: 296
Update: records affected: 1



GetName: 41859 GSAT0207 (GALILEO 15)

Hit Count: updated at: Wed, 21 Aug 2019 12:32:18 GMT